Dewpoint
29 25 23 20 21 22 24 28 32 36 36 34 37 38 49 49 52 55 56 60 61 59 59 59 59 59 62 64 65 67 66 64 64 62 64 63 59 50 50 50 51 51 51 51 49 49 53 54 56 57 58 59 61 64 65 65 65 68 68 69 70 71 72 72 72 71 71 70 71 72 71 71 72 72 72 72 72 72 74 75 75 76 77 77 77 77
27 24 19 19 20 20 22 26 30 32 33 32 30 37 46 48 50 53 55 59 59 57 58 59 58 59 61 63 65 66 64 62 64 63 63 64 65 61 50 50 51 52 51 51 47 47 52 53 56 57 58 63 62 64 64 64 64 67 67 68 70 71 71 71 71 71 70 71 70 71 71 72 72 73 73 73 72 73 74 75 76 76 76 77 76 77
23 22 19 16 16 17 16 17 21 23 27 30 29 36 44 47 50 53 55 57 60 60 56 58 58 59 61 63 65 65 65 66 64 63 66 64 65 64 60 51 52 51 51 51 46 48 51 54 56 57 59 61 62 63 63 63 64 66 66 69 71 71 71 71 72 71 70 71 71 70 71 72 73 74 73 73 74 74 74 76 76 76 76 77 76 77
21 20 21 19 14 13 12 13 15 18 23 25 30 32 38 50 49 51 54 57 57 56 57 58 57 59 62 62 63 63 66 65 65 66 67 68 67 66 63 59 53 51 51 51 48 50 51 54 56 58 59 61 62 63 63 62 64 66 68 69 70 70 71 71 72 73 70 72 71 71 71 72 72 72 74 74 75 74 74 75 76 77 76 76 76 76
19 19 20 20 17 13 12 12 14 16 19 26 30 32 40 48 48 51 53 56 56 56 58 57 56 57 60 60 61 63 64 66 67 66 65 67 69 67 65 66 65 52 51 52 48 50 51 54 55 58 60 60 61 62 63 63 64 66 67 70 70 70 71 71 72 72 70 74 73 71 72 73 73 73 72 72 73 74 75 75 75 76 76 76 76 76
19 19 19 19 18 16 16 15 14 13 21 26 28 29 33 43 48 49 50 51 52 54 56 53 49 51 57 59 60 60 63 64 66 65 64 66 67 67 63 64 64 62 51 53 48 51 52 54 55 58 60 61 61 62 63 64 64 67 68 70 70 70 71 70 70 72 72 71 71 70 71 71 71 71 70 70 71 72 74 73 74 76 76 76 75 75
18 19 18 18 17 16 16 16 15 15 19 25 29 34 35 42 47 47 45 48 48 49 52 51 49 48 52 51 55 57 58 62 64 65 64 65 65 67 65 64 64 59 52 53 49 53 52 55 55 58 60 61 61 62 63 64 65 68 68 70 70 70 71 70 71 73 73 71 72 70 71 70 70 70 70 71 71 72 73 74 74 75 76 76 75 75
18 18 18 17 16 15 16 16 20 20 28 32 32 33 37 45 45 45 45 47 47 48 51 51 50 48 50 54 55 57 59 61 62 63 64 64 65 66 67 64 66 64 52 54 51 53 53 56 56 57 59 61 62 63 63 64 67 68 69 70 71 71 72 70 72 73 72 72 72 71 71 72 71 70 71 72 71 73 74 73 73 75 75 76 75 75
17 17 18 16 15 14 16 20 32 32 32 32 33 33 34 43 41 43 44 44 44 46 47 47 50 49 50 56 60 59 58 59 60 62 64 63 65 66 67 66 66 65 61 54 51 52 53 56 55 57 59 60 62 62 64 64 68 68 69 71 71 71 72 70 73 73 73 73 72 71 72 72 72 72 72 73 73 73 74 72 73 74 74 75 75 74
17 17 17 17 14 14 26 29 31 33 31 31 32 31 29 35 36 42 51 47 52 46 45 46 48 48 49 55 57 60 57 59 61 62 64 65 65 66 66 66 66 66 64 66 52 52 54 57 55 56 59 59 61 62 65 64 68 69 69 71 70 72 72 70 73 73 73 74 73 72 72 70 72 72 73 72 72 73 73 73 73 74 75 74 75 75
17 27 30 17 15 16 28 30 32 32 30 32 30 29 27 31 34 34 37 40 41 35 39 46 46 48 46 53 55 55 56 59 62 64 65 66 66 67 69 67 66 66 65 67 66 61 56 58 56 57 58 59 60 62 63 66 68 69 69 71 69 71 72 71 73 73 73 73 73 72 72 70 71 71 71 72 72 73 74 74 74 74 74 75 75 75
20 18 19 19 21 27 28 26 28 29 29 26 26 23 29 33 35 36 39 41 35 34 38 41 45 48 46 50 57 57 56 57 60 62 63 65 66 66 67 66 65 66 67 67 69 66 64 58 57 58 58 59 59 60 61 66 68 69 69 71 70 71 73 70 72 72 74 73 73 72 73 70 72 70 72 72 73 73 74 73 73 74 74 74 75 74
19 19 22 24 33 28 30 27 26 26 24 22 25 27 28 35 33 33 34 32 31 31 37 46 47 48 50 52 52 54 56 57 59 61 65 65 65 65 66 66 67 68 69 69 68 68 65 65 58 58 58 61 59 60 61 66 68 69 69 71 70 70 73 71 71 73 73 73 73 72 73 71 72 71 72 72 73 74 74 73 73 75 74 74 74 74
19 22 24 26 30 32 29 25 26 26 28 27 27 34 26 32 27 29 30 31 33 32 40 48 49 48 51 54 55 54 55 57 60 62 64 65 65 66 66 65 68 70 69 68 68 68 68 66 67 58 58 62 60 59 60 66 68 69 69 71 71 70 72 72 71 73 73 73 73 72 73 72 73 72 72 72 72 74 74 75 74 74 74 75 73 73
20 22 24 26 26 31 29 28 25 28 28 27 31 28 33 31 29 28 28 27 27 33 44 46 46 47 48 51 60 58 58 60 61 63 66 66 67 67 67 68 68 69 70 69 67 68 67 68 68 68 62 61 61 59 59 65 68 70 69 70 71 70 72 73 72 73 72 73 73 72 73 74 73 73 72 73 72 73 73 74 74 75 74 75 74 72
18 23 25 27 29 27 27 29 28 25 22 27 29 29 28 25 32 25 27 27 26 31 42 46 48 49 50 54 58 59 60 61 62 63 64 65 67 66 67 68 68 69 70 69 68 70 70 69 69 69 67 60 62 60 59 64 68 69 70 70 72 70 72 73 73 73 72 73 72 73 73 73 74 74 73 74 74 73 73 74 74 74 74 75 75 73
20 19 23 24 28 26 25 27 28 27 25 26 25 25 24 25 24 31 36 26 25 42 42 48 47 49 52 53 56 60 60 59 60 62 63 64 65 66 66 67 65 68 68 69 70 68 70 69 69 69 68 63 60 60 60 65 67 69 71 70 71 72 72 73 74 73 73 72 72 73 73 73 74 74 73 73 73 72 73 73 74 74 74 74 74 76
19 18 20 23 19 20 22 23 25 25 23 20 23 22 19 20 24 34 28 30 29 35 43 45 45 46 48 46 56 57 58 59 60 59 60 62 64 63 64 66 68 68 69 70 70 71 72 73 71 70 69 70 71 63 60 66 66 69 72 70 71 72 72 73 74 73 74 72 72 72 73 73 73 73 72 72 72 71 72 72 73 73 74 74 74 75
19 18 18 22 19 17 23 23 20 23 25 19 19 19 19 25 21 29 31 19 26 39 42 48 48 47 50 49 54 56 56 56 56 57 57 59 62 62 63 66 67 67 67 68 70 70 72 72 70 69 70 71 72 70 70 69 69 69 71 71 71 72 72 72 73 74 73 73 72 72 72 73 72 72 72 71 72 70 70 72 71 71 72 73 74 74
24 18 17 20 18 15 20 16 21 18 19 19 18 17 20 22 21 30 24 29 32 41 40 42 46 45 50 54 56 55 56 54 54 55 56 57 59 61 61 63 65 65 67 68 69 69 70 71 72 71 69 71 71 70 71 73 69 69 69 72 73 72 72 72 72 74 73 73 72 71 72 72 73 72 71 71 71 69 70 70 70 70 71 71 73 72
20 22 17 14 15 15 15 19 16 19 20 18 17 17 18 23 21 20 22 18 33 40 40 41 41 47 50 55 55 55 53 53 54 54 55 56 57 57 60 62 64 67 67 68 68 69 70 71 72 72 71 71 71 72 71 72 72 71 71 73 75 75 74 74 73 73 73 73 72 72 71 71 72 72 71 71 71 69 69 69 70 69 70 71 71 72
30 25 28 19 19 13 15 15 14 14 15 14 16 17 17 18 18 17 24 19 20 40 39 40 42 48 53 57 55 54 51 53 54 54 55 55 55 56 57 60 62 63 66 65 67 69 70 69 71 73 73 72 72 72 72 71 70 71 72 73 73 73 71 72 72 71 72 72 72 71 71 71 71 71 71 70 71 69 68 68 70 68 69 70 70 71
30 31 36 22 15 12 13 14 15 22 19 19 27 17 16 17 24 25 23 34 42 44 43 44 44 47 54 57 57 56 50 53 53 54 54 54 54 55 56 58 60 61 63 64 65 67 69 69 70 72 72 72 73 73 72 72 72 72 73 73 73 73 73 73 73 73 72 71 72 71 72 71 71 71 71 69 69 69 68 68 69 69 68 68 69 70
43 31 31 28 28 12 13 13 18 19 18 15 18 18 18 18 19 20 28 37 42 44 42 43 43 48 53 59 58 58 50 52 52 53 53 53 53 54 55 56 57 58 60 61 62 63 65 68 69 69 70 69 70 71 72 72 73 72 72 72 72 72 73 74 74 74 73 73 72 71 71 71 71 71 70 69 68 67 66 67 67 70 68 67 67 69
27 34 32 27 25 18 19 23 19 18 15 19 15 19 19 20 18 24 29 39 41 43 42 42 41 47 53 57 61 59 52 51 50 51 52 52 53 54 54 55 55 56 58 59 60 62 62 64 66 66 67 69 70 71 71 72 71 71 72 73 72 73 74 74 73 74 73 72 72 71 71 71 71 70 70 69 68 67 65 65 65 67 67 66 65 66
34 35 37 28 28 23 20 17 20 23 18 16 16 16 17 17 22 26 28 38 34 43 46 43 44 50 53 58 55 56 54 47 48 49 50 51 52 53 54 54 54 55 56 57 59 60 63 64 65 66 66 67 67 68 69 70 71 72 72 73 74 72 72 74 75 75 73 72 73 72 73 71 70 71 70 69 67 66 65 64 65 65 66 66 65 65
38 38 40 37 30 27 30 36 33 32 26 15 13 15 16 18 20 28 35 37 34 42 45 45 47 49 50 51 54 57 49 47 47 48 49 50 52 53 53 54 54 55 56 56 58 59 59 60 62 65 66 67 68 68 68 68 69 70 72 73 73 74 73 74 74 73 74 74 72 73 74 72 72 72 71 70 70 69 66 64 63 64 65 66 65 64
42 34 34 39 36 30 18 17 15 20 15 14 14 15 15 17 20 23 28 40 46 44 41 47 48 47 47 50 52 46 46 47 48 48 49 49 50 51 52 53 55 54 55 55 56 57 57 58 59 59 61 63 66 68 68 68 69 69 70 71 72 73 73 73 72 73 74 73 72 72 73 74 74 73 72 73 73 70 69 68 67 63 65 66 65 64
35 28 24 23 26 24 18 18 16 14 15 15 15 13 15 17 22 20 28 40 45 42 43 47 47 45 45 45 45 45 46 45 46 48 49 50 50 51 50 50 51 52 54 54 55 56 57 56 57 58 59 59 61 64 66 67 68 69 68 70 71 72 73 74 73 72 72 72 72 71 72 74 75 75 75 75 74 72 71 71 70 69 67 67 66 65
31 29 30 21 20 21 20 15 15 13 14 14 13 14 12 10 14 23 33 41 45 46 47 47 46 44 44 44 45 46 47 48 48 47 48 48 49 50 50 50 51 52 53 53 54 54 56 56 56 57 58 58 58 61 64 66 66 67 69 69 70 71 72 73 73 72 72 73 73 73 73 74 74 75 75 75 74 73 72 71 71 70 70 69 66 65
26 34 28 22 27 21 16 17 19 17 14 12 12 13 13 12 11 23 41 45 47 45 46 45 46 47 49 48 48 48 48 49 49 47 47 48 48 49 49 49 50 51 52 53 54 54 55 56 57 57 57 59 58 58 61 65 66 67 68 69 70 71 72 72 71 71 72 73 73 73 74 74 74 73 73 74 74 73 73 73 72 71 72 72 69 68
26 30 26 29 27 24 18 15 17 16 14 14 13 15 17 13 17 17 29 46 45 46 47 46 46 46 48 48 48 48 48 49 49 49 48 47 48 49 49 49 50 50 51 52 53 54 54 55 56 56 56 57 58 57 58 61 62 65 68 68 68 70 70 70 70 69 70 70 70 71 72 73 73 73 73 73 73 74 74 73 73 72 71 70 70 71
32 28 26 28 23 24 18 13 11 12 14 15 21 11 22 19 24 16 40 45 46 46 45 44 45 47 48 49 47 48 48 48 48 48 47 47 49 49 49 49 49 49 50 52 53 53 53 54 55 56 56 55 55 57 57 58 59 60 63 68 68 68 67 67 68 69 69 69 68 68 68 70 70 72 73 73 74 74 74 74 73 71 71 72 71 69
35 31 31 35 25 26 17 11 24 21 15 16 29 25 22 13 18 21 36 40 44 46 45 46 47 48 48 48 47 48 48 49 50 52 53 52 49 49 50 50 50 50 51 51 51 51 53 55 56 56 56 55 55 57 58 59 58 59 60 62 65 65 65 65 66 67 67 68 68 68 68 69 69 70 70 73 73 73 74 73 73 73 73 73 72 70
32 33 32 33 29 26 23 24 23 15 23 33 28 26 29 20 13 33 39 40 43 45 46 46 46 47 48 47 48 49 49 49 49 49 50 51 51 48 48 48 49 52 53 52 51 51 52 54 55 57 58 55 55 55 58 59 59 59 59 59 61 62 63 63 64 64 65 65 67 68 69 69 69 69 70 71 73 72 72 72 72 73 74 73 73 71
38 33 31 31 30 30 26 27 16 19 31 29 25 25 31 33 35 36 39 42 45 45 45 45 45 46 47 47 48 49 49 49 49 51 51 49 47 49 45 46 46 49 51 53 53 53 52 52 55 55 58 59 55 54 56 60 60 60 60 59 61 61 61 62 63 63 64 64 64 65 68 69 69 69 69 70 71 72 72 72 72 73 74 73 74 73
34 37 36 33 34 27 28 22 23 34 30 31 33 33 28 28 30 35 35 40 45 45 45 45 45 45 45 47 48 48 48 48 48 49 48 49 49 47 44 43 43 43 48 52 51 52 54 53 53 55 59 56 53 53 55 59 59 60 60 59 60 62 61 61 61 61 63 63 64 65 65 67 68 69 69 70 71 71 72 72 72 73 73 73 73 73
36 33 39 34 32 27 26 23 29 24 26 31 38 34 24 26 28 31 37 38 45 43 44 44 43 45 45 47 47 47 46 46 46 46 46 45 45 46 43 44 41 42 43 46 46 47 52 53 53 54 54 52 52 52 58 59 59 59 59 59 59 62 62 61 61 61 63 62 64 65 65 65 68 69 69 68 69 70 72 72 72 72 73 73 73 73
32 36 42 35 34 29 25 20 22 22 31 37 34 32 28 28 25 34 32 32 38 42 43 42 40 42 44 47 44 46 45 44 44 45 44 44 43 43 42 42 42 42 44 44 45 46 50 54 54 52 54 52 51 54 55 56 56 57 57 59 58 61 61 62 63 62 62 62 63 63 64 65 66 66 67 68 68 70 71 71 71 72 73 73 73 73
32 29 31 31 33 31 29 21 22 36 33 38 35 31 23 22 25 25 16 21 38 38 43 42 40 43 40 42 42 45 44 44 44 45 43 41 42 43 44 45 45 45 44 45 47 50 54 55 51 49 50 51 53 52 54 55 56 58 58 58 59 60 60 61 63 63 64 63 63 62 63 64 65 65 65 66 69 70 72 73 72 72 72 73 73 73
28 32 26 25 21 23 29 26 31 34 38 41 34 31 20 23 25 19 17 34 45 39 42 41 40 38 39 41 41 39 41 42 40 39 40 41 40 42 45 46 46 46 44 46 51 55 49 50 52 50 49 51 53 52 54 56 57 58 58 58 57 59 58 61 63 63 64 63 63 62 61 61 63 64 63 63 68 70 71 72 73 73 72 72 72 73
29 31 31 28 24 23 24 18 25 34 39 36 34 35 35 35 22 23 40 48 42 40 40 39 39 37 39 42 42 40 41 41 42 39 39 40 42 43 44 45 45 46 46 54 55 53 50 49 49 49 49 50 51 53 54 55 58 58 59 57 57 57 57 60 62 63 62 63 63 63 61 62 63 64 63 64 67 68 67 69 69 71 72 73 73 72
33 27 26 24 27 24 29 25 29 27 37 43 39 36 42 37 41 45 45 42 42 42 40 40 39 39 39 38 40 39 36 37 37 38 39 40 43 45 45 46 46 47 48 48 48 50 50 49 49 49 50 50 52 54 55 55 57 58 57 57 58 58 58 58 60 60 61 63 63 63 63 63 62 61 62 63 68 66 65 66 67 68 69 70 72 71
42 31 29 33 37 31 27 25 29 36 36 42 44 39 45 44 47 47 43 40 42 43 42 41 41 40 38 38 37 36 36 38 40 41 42 42 43 44 46 47 48 48 46 45 47 48 51 49 51 50 51 52 54 54 55 55 55 56 57 57 56 57 59 58 56 57 58 61 63 62 63 63 62 60 60 64 66 64 63 64 66 67 68 70 72 71
40 39 40 34 38 35 34 35 39 43 42 44 46 46 47 49 50 48 44 44 41 41 44 42 40 39 39 39 38 37 35 37 39 40 40 42 43 44 45 46 47 47 47 48 48 51 50 50 50 52 52 52 52 53 54 54 54 55 56 55 57 58 57 58 58 59 58 58 60 61 61 61 60 60 61 65 64 63 64 64 65 65 67 70 69 68
41 45 46 40 38 43 42 41 42 40 40 43 43 44 43 44 47 46 43 43 44 43 43 42 39 39 39 40 37 38 37 39 38 38 40 42 43 46 49 47 47 47 47 48 49 50 51 51 51 51 51 52 52 52 54 54 54 53 54 56 57 56 55 58 59 58 58 57 58 59 60 59 59 59 60 62 62 64 65 64 64 65 66 66 65 67
40 38 38 35 41 28 29 42 39 43 40 41 41 43 43 44 44 45 46 46 47 44 45 46 41 41 40 42 42 39 39 39 39 43 44 44 45 46 46 47 47 48 48 49 51 52 51 52 51 51 52 52 52 52 52 52 53 54 55 55 54 53 55 56 58 59 59 57 57 57 58 59 59 59 60 60 62 64 63 62 64 63 65 64 64 65
41 44 40 39 37 34 37 43 43 45 46 43 41 42 42 41 41 45 45 45 48 47 45 44 43 42 41 42 43 42 41 40 43 44 45 47 47 47 46 46 47 49 50 50 51 51 51 50 49 50 51 52 52 52 52 52 52 52 52 52 53 53 55 57 58 57 57 56 56 57 58 59 58 58 59 61 59 58 60 62 63 63 63 62 63 64
42 42 37 41 37 39 39 41 45 41 40 43 43 46 43 41 41 39 41 43 45 46 44 45 46 43 42 41 42 42 41 42 44 43 44 46 46 47 47 47 48 49 49 50 50 52 49 49 51 51 51 52 52 51 52 52 52 52 51 51 52 53 53 54 57 57 56 56 56 56 59 61 60 60 60 58 59 59 60 60 61 62 63 63 64 64
41 39 40 38 36 35 40 43 45 41 40 42 44 46 46 46 43 41 43 42 43 45 46 43 43 43 39 40 41 40 43 45 45 44 41 46 47 44 45 47 47 48 48 48 49 49 48 51 51 51 51 50 51 51 52 51 51 52 52 52 52 53 53 54 54 54 55 56 56 56 57 59 59 58 59 59 58 58 59 63 58 58 61 61 64 61
41 46 41 39 39 40 45 48 47 47 47 44 46 47 47 47 46 40 42 41 43 45 45 44 42 42 42 44 43 41 44 45 45 44 45 44 46 47 45 43 45 49 47 48 47 48 48 50 51 51 51 50 52 51 51 51 51 51 52 52 54 54 54 53 54 55 54 55 55 55 56 56 55 57 57 57 58 60 60 59 59 53 52 55 58 55